When you browse on this site, cookies collect data to enhance your experience and personalize the content and advertising you see.
Visit our Privacy Policy to learn more. By continuing to use the site, you agree to this use of cookies and data.
  • In Schweiz
  • Länderverzeichnis
  • Für 7 Tage
  • Wassertemperatur
  • Satellitenkarten
  • Wetterkarte
  • Widgets
  • user-avatar
    Anmelden

    Stündliche Wetter Hoyerswerda

    Heute, 26 Mai, Sonntag

    Zeit Temperatur Niederschläge Wind Luftdruck Luftfeuchtigkeit
    00:00 +10°C° 0 mm 1 m/S 751 mmHg 93%
    01:00 +10°C° 0 mm 1 m/S 751 mmHg 95%
    02:00 +10°C° 0 mm 1 m/S 751 mmHg 95%
    03:00 +9°C° 0 mm 1 m/S 751 mmHg 95%
    04:00 +9°C° 0 mm 1 m/S 751 mmHg 95%
    05:00 +10°C° 0 mm 2 m/S 751 mmHg 89%
    06:00 +12°C° 0 mm 2 m/S 751 mmHg 83%
    07:00 +14°C° 0 mm 2 m/S 751 mmHg 75%
    08:00 +16°C° 0 mm 3 m/S 750 mmHg 69%
    09:00 +17°C° 0 mm 3 m/S 750 mmHg 63%
    10:00 +19°C° 0 mm 4 m/S 750 mmHg 57%
    11:00 +20°C° 0 mm 4 m/S 749 mmHg 54%
    12:00 +21°C° 0 mm 5 m/S 749 mmHg 52%
    13:00 +22°C° 0 mm 5 m/S 749 mmHg 50%
    14:00 +22°C° 0 mm 5 m/S 748 mmHg 51%
    15:00 +22°C° 0 mm 5 m/S 748 mmHg 52%
    16:00 +22°C° 0 mm 5 m/S 748 mmHg 52%
    17:00 +21°C° 0 mm 4 m/S 747 mmHg 59%
    18:00 +20°C° 0 mm 3 m/S 747 mmHg 65%
    19:00 +19°C° 0 mm 2 m/S 747 mmHg 72%
    20:00 +18°C° 0 mm 2 m/S 747 mmHg 75%
    21:00 +16°C° 0 mm 2 m/S 747 mmHg 79%
    22:00 +14°C° 0 mm 3 m/S 747 mmHg 83%
    23:00 +14°C° 0 mm 3 m/S 747 mmHg 83%

    Morgen, 27 Mai, Montag

    Zeit Temperatur Niederschläge Wind Luftdruck Luftfeuchtigkeit
    00:00 +14°C° 0 mm 3 m/S 747 mmHg 82%
    01:00 +13°C° 0 mm 3 m/S 747 mmHg 82%
    02:00 +13°C° 0 mm 3 m/S 746 mmHg 82%
    03:00 +13°C° 0 mm 3 m/S 746 mmHg 82%
    04:00 +12°C° 0 mm 3 m/S 746 mmHg 82%
    05:00 +14°C° 0 mm 3 m/S 746 mmHg 78%
    06:00 +15°C° 0 mm 4 m/S 746 mmHg 75%
    07:00 +18°C° 0 mm 4 m/S 746 mmHg 71%
    08:00 +19°C° 0 mm 4 m/S 746 mmHg 68%
    09:00 +20°C° 0 mm 5 m/S 746 mmHg 64%
    10:00 +22°C° 0 mm 5 m/S 746 mmHg 61%
    11:00 +22°C° 0.3 mm 5 m/S 746 mmHg 61%
    12:00 +22°C° 0.3 mm 5 m/S 746 mmHg 62%
    13:00 +22°C° 0.3 mm 5 m/S 745 mmHg 63%
    14:00 +22°C° 0.4 mm 4 m/S 745 mmHg 64%
    15:00 +22°C° 0.4 mm 3 m/S 745 mmHg 64%
    16:00 +23°C° 0.4 mm 2 m/S 745 mmHg 65%
    17:00 +21°C° 0.3 mm 2 m/S 745 mmHg 70%
    18:00 +21°C° 0.3 mm 1 m/S 744 mmHg 74%
    19:00 +20°C° 0.3 mm 1 m/S 744 mmHg 78%
    20:00 +19°C° 0.4 mm 1 m/S 744 mmHg 83%
    21:00 +18°C° 0.4 mm 1 m/S 745 mmHg 87%
    22:00 +16°C° 0.4 mm 2 m/S 745 mmHg 92%
    23:00 +15°C° 0 mm 2 m/S 744 mmHg 92%

    übermorgen, 28 Mai, Dienstag

    Zeit Temperatur Niederschläge Wind Luftdruck Luftfeuchtigkeit
    00:00 +15°C° 0 mm 1 m/S 744 mmHg 93%
    01:00 +14°C° 0 mm 1 m/S 744 mmHg 93%
    02:00 +14°C° 0.1 mm 1 m/S 744 mmHg 93%
    03:00 +14°C° 0.1 mm 2 m/S 743 mmHg 93%
    04:00 +14°C° 0.1 mm 2 m/S 743 mmHg 93%
    05:00 +13°C° 0.5 mm 2 m/S 743 mmHg 92%
    06:00 +12°C° 0.5 mm 3 m/S 743 mmHg 92%
    07:00 +12°C° 0.5 mm 3 m/S 743 mmHg 91%
    08:00 +12°C° 0.5 mm 3 m/S 743 mmHg 89%
    09:00 +12°C° 0.5 mm 3 m/S 744 mmHg 86%
    10:00 +13°C° 0.5 mm 3 m/S 744 mmHg 84%
    11:00 +13°C° 0.5 mm 3 m/S 744 mmHg 81%
    12:00 +14°C° 0.5 mm 2 m/S 744 mmHg 78%
    13:00 +15°C° 0.5 mm 2 m/S 744 mmHg 75%
    14:00 +15°C° 0.1 mm 2 m/S 744 mmHg 74%
    15:00 +15°C° 0.1 mm 1 m/S 744 mmHg 73%
    16:00 +15°C° 0.1 mm 1 m/S 744 mmHg 71%
    17:00 +15°C° 0 mm 1 m/S 745 mmHg 74%
    18:00 +14°C° 0 mm 1 m/S 745 mmHg 77%
    19:00 +13°C° 0 mm 0 m/S 745 mmHg 80%
    20:00 +12°C° 0 mm 0 m/S 745 mmHg 83%
    21:00 +11°C° 0 mm 0 m/S 746 mmHg 87%
    22:00 +10°C° 0 mm 0 m/S 746 mmHg 90%
    23:00 +9°C° 0 mm 0 m/S 746 mmHg 91%

    29 Mai, Mittwoch

    Zeit Temperatur Niederschläge Wind Luftdruck Luftfeuchtigkeit
    00:00 +9°C° 0 mm 0 m/S 746 mmHg 92%
    01:00 +8°C° 0 mm 0 m/S 747 mmHg 93%
    02:00 +8°C° 0 mm 0 m/S 747 mmHg 94%
    03:00 +9°C° 0 mm 1 m/S 747 mmHg 94%
    04:00 +8°C° 0 mm 1 m/S 748 mmHg 95%
    05:00 +10°C° 0 mm 1 m/S 748 mmHg 89%
    06:00 +11°C° 0 mm 1 m/S 749 mmHg 82%
    07:00 +12°C° 0 mm 2 m/S 749 mmHg 76%
    08:00 +13°C° 0 mm 2 m/S 749 mmHg 69%
    09:00 +15°C° 0 mm 2 m/S 750 mmHg 62%
    10:00 +16°C° 0 mm 3 m/S 750 mmHg 55%
    11:00 +16°C° 0 mm 3 m/S 751 mmHg 56%
    12:00 +17°C° 0 mm 3 m/S 751 mmHg 56%
    13:00 +17°C° 0 mm 3 m/S 751 mmHg 57%
    14:00 +17°C° 0.1 mm 4 m/S 751 mmHg 59%
    15:00 +17°C° 0.1 mm 4 m/S 752 mmHg 62%
    16:00 +17°C° 0.1 mm 4 m/S 752 mmHg 64%
    17:00 +16°C° 0 mm 3 m/S 752 mmHg 66%
    18:00 +15°C° 0 mm 2 m/S 753 mmHg 68%
    19:00 +15°C° 0 mm 2 m/S 753 mmHg 71%
    20:00 +13°C° 0 mm 1 m/S 754 mmHg 74%
    21:00 +12°C° 0 mm 1 m/S 754 mmHg 77%
    22:00 +10°C° 0 mm 1 m/S 755 mmHg 81%
    23:00 +9°C° 0 mm 1 m/S 755 mmHg 81%

    30 Mai, Donnerstag

    Zeit Temperatur Niederschläge Wind Luftdruck Luftfeuchtigkeit
    00:00 +8°C° 0 mm 1 m/S 755 mmHg 82%
    01:00 +8°C° 0 mm 1 m/S 756 mmHg 82%
    02:00 +7°C° 0 mm 1 m/S 756 mmHg 82%
    03:00 +7°C° 0 mm 1 m/S 756 mmHg 83%
    04:00 +7°C° 0 mm 1 m/S 756 mmHg 83%
    05:00 +9°C° 0 mm 1 m/S 756 mmHg 77%
    06:00 +11°C° 0 mm 1 m/S 757 mmHg 71%
    07:00 +13°C° 0 mm 1 m/S 757 mmHg 66%
    08:00 +14°C° 0 mm 1 m/S 757 mmHg 61%
    09:00 +16°C° 0 mm 1 m/S 757 mmHg 56%
    10:00 +19°C° 0 mm 1 m/S 756 mmHg 52%
    11:00 +20°C° 0 mm 1 m/S 756 mmHg 49%
    12:00 +19°C° 0 mm 2 m/S 756 mmHg 46%
    13:00 +20°C° 0 mm 2 m/S 755 mmHg 43%
    14:00 +20°C° 0 mm 2 m/S 755 mmHg 44%
    15:00 +20°C° 0 mm 3 m/S 754 mmHg 44%
    16:00 +21°C° 0 mm 3 m/S 754 mmHg 45%
    17:00 +20°C° 0 mm 2 m/S 754 mmHg 51%
    18:00 +19°C° 0 mm 2 m/S 754 mmHg 57%
    19:00 +19°C° 0 mm 1 m/S 754 mmHg 63%
    20:00 +16°C° 0 mm 2 m/S 753 mmHg 65%
    21:00 +15°C° 0 mm 2 m/S 753 mmHg 67%
    22:00 +13°C° 0 mm 3 m/S 753 mmHg 70%
    23:00 +13°C° 0 mm 3 m/S 753 mmHg 71%

    31 Mai, Freitag

    Zeit Temperatur Niederschläge Wind Luftdruck Luftfeuchtigkeit
    00:00 +13°C° 0 mm 3 m/S 753 mmHg 73%
    01:00 +13°C° 0 mm 3 m/S 753 mmHg 74%
    02:00 +13°C° 0.2 mm 3 m/S 752 mmHg 81%
    03:00 +13°C° 0.2 mm 3 m/S 752 mmHg 87%
    04:00 +13°C° 0.2 mm 3 m/S 752 mmHg 94%
    05:00 +13°C° 0.7 mm 3 m/S 752 mmHg 95%
    06:00 +13°C° 0.7 mm 3 m/S 752 mmHg 95%
    07:00 +14°C° 0.7 mm 3 m/S 752 mmHg 96%
    08:00 +13°C° 1 mm 4 m/S 753 mmHg 93%
    09:00 +13°C° 1 mm 4 m/S 753 mmHg 91%
    10:00 +12°C° 1 mm 5 m/S 754 mmHg 88%
    11:00 +14°C° 0 mm 5 m/S 754 mmHg 75%
    12:00 +15°C° 0 mm 5 m/S 755 mmHg 62%
    13:00 +16°C° 0 mm 5 m/S 755 mmHg 49%
    14:00 +16°C° 0 mm 5 m/S 756 mmHg 46%
    15:00 +17°C° 0 mm 5 m/S 756 mmHg 43%
    16:00 +17°C° 0 mm 5 m/S 757 mmHg 41%
    17:00 +16°C° 0 mm 5 m/S 757 mmHg 48%
    18:00 +14°C° 0 mm 4 m/S 757 mmHg 55%
    19:00 +13°C° 0 mm 4 m/S 758 mmHg 62%
    20:00 +12°C° 0 mm 3 m/S 758 mmHg 68%
    21:00 +10°C° 0 mm 3 m/S 759 mmHg 73%
    22:00 +8°C° 0 mm 2 m/S 759 mmHg 79%
    23:00 +8°C° 0 mm 2 m/S 760 mmHg 81%
    Mehr zeigen